| time (UTC) | temp F | wind direction | speed knots | gust knots | rain 1hr in | rain 24hr in | rain mn in | humidity % | barometer mb |
| 20260505011804 | 75 | 103 | 3.5 | 4.3 | 0.00 | 0.00 | 0.00 | 28 | 996.3 |
| 20260505010804 | 75 | 120 | 2.6 | 7.8 | 0.00 | 0.00 | 0.00 | 28 | 996.2 |
| 20260505005825 | 76 | 107 | 6.1 | 7.8 | 0.00 | 0.00 | 0.00 | 28 | 996.0 |
| 20260505004803 | 76 | 120 | 4.3 | 9.6 | 0.00 | 0.00 | 0.00 | 29 | 996.1 |
| 20260505003804 | 77 | 125 | 6.1 | 11.3 | 0.00 | 0.00 | 0.00 | 28 | 996.0 |
| 20260505002803 | 77 | 131 | 7.0 | 11.3 | 0.00 | 0.00 | 0.00 | 28 | 996.0 |
| 20260505001804 | 77 | 128 | 6.1 | 11.3 | 0.00 | 0.00 | 0.00 | 29 | 996.2 |
| 20260505000803 | 78 | 127 | 5.2 | 12.2 | 0.00 | 0.00 | 0.00 | 28 | 996.2 |
| 20260504235804 | 79 | 132 | 9.6 | 13.0 | 0.00 | 0.00 | 0.00 | 27 | 996.4 |
| 20260504234803 | 80 | 140 | 1.7 | 6.1 | 0.00 | 0.00 | 0.00 | 22 | 996.6 |
| 20260504233804 | 81 | 97 | 4.3 | 6.1 | 0.00 | 0.00 | 0.00 | 24 | 996.6 |
| 20260504232804 | 81 | 309 | 0.0 | 1.7 | 0.00 | 0.00 | 0.00 | 22 | 996.7 |
| 20260504231804 | 81 | 335 | 0.0 | 0.9 | 0.00 | 0.00 | 0.00 | 22 | 996.7 |
| 20260504230804 | 81 | 182 | 0.0 | 0.9 | 0.00 | 0.00 | 0.00 | 22 | 996.8 |
| 20260504225804 | 81 | 252 | 0.0 | 5.2 | 0.00 | 0.00 | 0.00 | 22 | 996.9 |
| 20260504224804 | 81 | 88 | 0.9 | 2.6 | 0.00 | 0.00 | 0.00 | 22 | 996.9 |
| 20260504223804 | 81 | 180 | 0.0 | 6.1 | 0.00 | 0.00 | 0.00 | 22 | 996.9 |
| 20260504222804 | 81 | 286 | 0.0 | 4.3 | 0.00 | 0.00 | 0.00 | 22 | 996.9 |
| 20260504221803 | 81 | 349 | 1.7 | 8.7 | 0.00 | 0.00 | 0.00 | 23 | 997.0 |
| 20260504220825 | 80 | 291 | 2.6 | 13.0 | 0.00 | 0.00 | 0.00 | 21 | 997.4 |
| 20260504215803 | 80 | 66 | 6.1 | 15.6 | 0.00 | 0.00 | 0.00 | 23 | 997.3 |
| 20260504214804 | 80 | 90 | 7.0 | 11.3 | 0.00 | 0.00 | 0.00 | 23 | 997.1 |
| 20260504213803 | 80 | 140 | 2.6 | 14.8 | 0.00 | 0.00 | 0.00 | 22 | 997.2 |
| 20260504212804 | 79 | 142 | 8.7 | 13.9 | 0.00 | 0.00 | 0.00 | 24 | 997.2 |
| 20260504211803 | 79 | 155 | 8.7 | 15.6 | 0.00 | 0.00 | 0.00 | 25 | 997.5 |
| 20260504210804 | 80 | 157 | 6.1 | 11.3 | 0.00 | 0.00 | 0.00 | 22 | 997.5 |
| 20260504205803 | 82 | 121 | 6.1 | 16.5 | 0.00 | 0.00 | 0.00 | 21 | 997.3 |
| 20260504204804 | 83 | 222 | 3.5 | 7.0 | 0.00 | 0.00 | 0.00 | 18 | 997.4 |
| 20260504203803 | 83 | 195 | 0.9 | 2.6 | 0.00 | 0.00 | 0.00 | 19 | 997.3 |
| 20260504202804 | 83 | 358 | 1.7 | 7.8 | 0.00 | 0.00 | 0.00 | 20 | 997.4 |
| 20260504201804 | 83 | 301 | 1.7 | 12.2 | 0.00 | 0.00 | 0.00 | 21 | 997.5 |
| 20260504200804 | 83 | 215 | 1.7 | 5.2 | 0.00 | 0.00 | 0.00 | 21 | 997.7 |
| 20260504195825 | 81 | 118 | 3.5 | 15.6 | 0.00 | 0.00 | 0.00 | 20 | 997.8 |
| 20260504194804 | 81 | 189 | 5.2 | 11.3 | 0.00 | 0.00 | 0.00 | 23 | 998.1 |
| 20260504193825 | 80 | 107 | 9.6 | 13.0 | 0.00 | 0.00 | 0.00 | 23 | 998.0 |
| 20260504192803 | 81 | 99 | 8.7 | 11.3 | 0.00 | 0.00 | 0.00 | 23 | 998.0 |
| 20260504191803 | 81 | 74 | 7.0 | 11.3 | 0.00 | 0.00 | 0.00 | 22 | 998.0 |
| 20260504190803 | 81 | 88 | 7.8 | 10.4 | 0.00 | 0.00 | 0.00 | 22 | 998.0 |
| 20260504185804 | 81 | 78 | 5.2 | 12.2 | 0.00 | 0.00 | 0.00 | 23 | 998.0 |
| 20260504184803 | 81 | 56 | 8.7 | 12.2 | 0.00 | 0.00 | 0.00 | 23 | 998.2 |
| 20260504183825 | 82 | 57 | 7.0 | 11.3 | 0.00 | 0.00 | 0.00 | 21 | 998.4 |
| 20260504182824 | 82 | 104 | 7.0 | 11.3 | 0.00 | 0.00 | 0.00 | 22 | 998.5 |
| 20260504181803 | 83 | 86 | 2.6 | 7.8 | 0.00 | 0.00 | 0.00 | 22 | 998.6 |
| 20260504180825 | 83 | 90 | 3.5 | 9.6 | 0.00 | 0.00 | 0.00 | 23 | 998.6 |
| 20260504175804 | 83 | 65 | 6.1 | 10.4 | 0.00 | 0.00 | 0.00 | 22 | 998.8 |
| 20260504174804 | 84 | 60 | 7.0 | 13.0 | 0.00 | 0.00 | 0.00 | 25 | 999.1 |
| 20260504173803 | 83 | 64 | 7.8 | 11.3 | 0.00 | 0.00 | 0.00 | 25 | 999.2 |
| 20260504172804 | 83 | 34 | 7.8 | 11.3 | 0.00 | 0.00 | 0.00 | 24 | 999.2 |
| 20260504171803 | 83 | 48 | 7.0 | 11.3 | 0.00 | 0.00 | 0.00 | 25 | 999.2 |
| 20260504170803 | 82 | 49 | 7.0 | 13.9 | 0.00 | 0.00 | 0.00 | 27 | 999.4 |
| 20260504150804 | 78 | 288 | 0.9 | 1.7 | 0.00 | 0.00 | 0.00 | 34 | 1000.0 |
| 20260504140803 | 67 | 293 | 0.9 | 3.5 | 0.00 | 0.00 | 0.00 | 51 | 1000.6 |
| 20260504130804 | 52 | 292 | 1.7 | 4.3 | 0.00 | 0.00 | 0.00 | 72 | 1000.6 |
| 20260504081804 | 46 | 299 | 1.7 | 3.5 | 0.00 | 0.00 | 0.00 | 71 | 1000.7 |
| 20260504080803 | 47 | 295 | 0.9 | 1.7 | 0.00 | 0.00 | 0.00 | 69 | 1000.7 |
| 20260504045803 | 54 | 18 | 2.6 | 5.2 | 0.00 | 0.00 | 0.00 | 57 | 1001.8 |
| 20260504044803 | 55 | 15 | 2.6 | 4.3 | 0.00 | 0.00 | 0.00 | 55 | 1001.9 |
| 20260504043803 | 55 | 19 | 3.5 | 4.3 | 0.00 | 0.00 | 0.00 | 54 | 1002.0 |
| 20260504042803 | 55 | 44 | 3.5 | 5.2 | 0.00 | 0.00 | 0.00 | 53 | 1002.2 |
| 20260504041803 | 56 | 58 | 3.5 | 7.0 | 0.00 | 0.00 | 0.00 | 52 | 1002.2 |
| 20260504040803 | 57 | 47 | 4.3 | 7.0 | 0.00 | 0.00 | 0.00 | 52 | 1002.3 |
| 20260504035804 | 57 | 45 | 4.3 | 6.1 | 0.00 | 0.00 | 0.00 | 51 | 1002.3 |
| 20260504034803 | 58 | 57 | 4.3 | 6.1 | 0.00 | 0.00 | 0.00 | 50 | 1002.4 |
| 20260504033803 | 59 | 61 | 3.5 | 6.1 | 0.00 | 0.00 | 0.00 | 48 | 1002.4 |
| 20260504032803 | 59 | 75 | 4.3 | 6.1 | 0.00 | 0.00 | 0.00 | 48 | 1002.5 |
| 20260504030804 | 59 | 65 | 3.5 | 8.7 | 0.00 | 0.00 | 0.00 | 46 | 1002.2 |
| 20260504025803 | 60 | 66 | 3.5 | 6.1 | 0.00 | 0.00 | 0.00 | 44 | 1002.3 |
| 20260504024804 | 61 | 57 | 4.3 | 6.1 | 0.00 | 0.00 | 0.00 | 42 | 1002.2 |
| 20260504023803 | 63 | 58 | 4.3 | 7.0 | 0.00 | 0.00 | 0.00 | 38 | 1002.3 |
| 20260504022824 | 65 | 54 | 4.3 | 7.0 | 0.00 | 0.00 | 0.00 | 36 | 1002.3 |
| 20260504021824 | 67 | 54 | 5.2 | 8.7 | 0.00 | 0.00 | 0.00 | 35 | 1002.3 |
| 20260504020804 | 68 | 35 | 3.5 | 5.2 | 0.00 | 0.00 | 0.00 | 34 | 1002.1 |
| 20260504015803 | 69 | 25 | 3.5 | 5.2 | 0.00 | 0.00 | 0.00 | 32 | 1002.1 |
| 20260504014803 | 71 | 36 | 3.5 | 5.2 | 0.00 | 0.00 | 0.00 | 31 | 1002.1 |
| 20260504013824 | 72 | 47 | 3.5 | 4.3 | 0.00 | 0.00 | 0.00 | 29 | 1002.1 |
| 20260504012803 | 73 | 55 | 2.6 | 4.3 | 0.00 | 0.00 | 0.00 | 29 | 1002.2 |